Weather Service Report


373 
ASUS43 KFSD 221810
RWRSD 

WEATHER ROUNDUP FOR SOUTH DAKOTA
NATIONAL WEATHER SERVICE SIOUX FALLS SD
100 PM CDT FRI MAY 22 2015

NOTE: "FAIR" INDICATES FEW OR NO CLOUDS BELOW 12,000 FEET WITH NO
SIGNIFICANT WEATHER AND/OR OBSTRUCTIONS TO VISIBILITY.


SDZ001>005-009-010-012>017-221900-
NORTHWEST AND NORTH CENTRAL SOUTH DAKOTA
  
CITY           SKY/WX    TMP DP  RH WIND       PRES   REMARKS
BUFFALO          N/A     64  40  41 SE25G32   30.01F                  
MOBRIDGE       SUNNY     74  35  24 SE17      30.12F                  
$$
 
SDZ012>016-024>037-041>051-057-063-072>074-221900-
SOUTHWEST AND SOUTH CENTRAL SOUTH DAKOTA
  
CITY           SKY/WX    TMP DP  RH WIND       PRES   REMARKS
RAPID CTY ARPT CLOUDY    58  45  62 S16G22    30.09F                  
PIERRE         PTSUNNY   72  38  29 SE18      30.13F                  
CUSTER         CLOUDY    46  39  76 SE10G18   30.11S                  
ELLSWORTH AFB  CLOUDY    59  45  59 S13       30.08F                  
PHILIP         PTSUNNY   68  38  33 SE23G31   30.10F                  
PINE RIDGE     CLOUDY    57  40  52 SE18G25   30.10F                  
SPEARFISH      CLOUDY    55  41  58 SE17      30.07S                  
WINNER         FAIR      68  38  33 SE15      30.16S                  
$$
 
SDZ004>011-016>023-039-040-221900-
NORTHEAST SOUTH DAKOTA
  
CITY           SKY/WX    TMP DP  RH WIND       PRES   REMARKS
ABERDEEN       SUNNY     74  38  27 VRB7      30.17F                  
WATERTOWN      SUNNY     72  37  28 VRB5      30.20S                  
BROOKINGS      SUNNY     70  36  28 E6        30.20F                  
SISSETON         N/A     72  29  20 SE7       30.20R                  
$$
 
SDZ017-020-022-023-036>040-048>070-221900-
SOUTHEAST SOUTH DAKOTA
  
CITY           SKY/WX    TMP DP  RH WIND       PRES   REMARKS
SIOUX FALLS    CLOUDY    73  41  31 NE5       30.20S                  
HURON          SUNNY     73  38  27 SE6       30.18S                  
CHAMBERLAIN    MOSUNNY   69  38  32 SE20G25   30.17S                  
MITCHELL       MOSUNNY   73  39  29 S8        30.19S                  
YANKTON        PTSUNNY   70  39  32 SE12G17   30.19F                  
$$
 
ABBREVIATIONS USED IN REMARKS
   TC - TEMPERATURE IN CELSIUS
  WCI - WIND CHILL INDEX
   HX - HEAT INDEX
  VSB - VISIBILITY



376 
ASUS43 KFSD 221810
RWRFSD

WEATHER ROUNDUP FOR SE SOUTH DAKOTA/SW MINNESOTA/NW IOWA
NATIONAL WEATHER SERVICE SIOUX FALLS SD
100 PM CDT FRI MAY 22 2015

NOTE: "FAIR" INDICATES FEW OR NO CLOUDS BELOW 12,000 FEET WITH NO
SIGNIFICANT WEATHER AND OR OBSTRUCTIONS TO VISIBILITY.


SDZ038>040-050-052>070-221900-
SOUTHEAST SOUTH DAKOTA
  
CITY           SKY/WX    TMP DP  RH WIND       PRES   REMARKS
BROOKINGS      SUNNY     70  36  28 E6        30.20F                  
CHAMBERLAIN    MOSUNNY   69  38  32 SE20G25   30.17S                  
6HR MIN TEMP:  45; 6HR MAX TEMP:  69;                                

HURON          SUNNY     73  38  27 SE6       30.18S                  
6HR MIN TEMP:  45; 6HR MAX TEMP:  73;                                

MADISON        FAIR      72  34  25 S7        30.20F                  
MITCHELL       MOSUNNY   73  39  29 S8        30.19S                  
6HR MIN TEMP:  46; 6HR MAX TEMP:  73;                                

SIOUX FALLS    CLOUDY    73  41  31 NE5       30.20S                  
6HR MIN TEMP:  44; 6HR MAX TEMP:  74;                                

WINNER         FAIR      68  38  33 SE15      30.16S                  
YANKTON        PTSUNNY   70  39  32 SE12G17   30.19F                  
$$

MNZ071-072-080-081-089-090-097-098-221900-
SOUTHWEST MINNESOTA
  
CITY           SKY/WX    TMP DP  RH WIND       PRES   REMARKS
FAIRMONT       SUNNY     72  30  21 SE7       30.22S                  
JACKSON        SUNNY     72  30  21 W3        30.23S                  
LUVERNE        SUNNY     73  34  23 CALM      30.21F                  
MARSHALL       SUNNY     72  34  25 CALM      30.21S                  
6HR MIN TEMP:  46; 6HR MAX TEMP:  72;                                

MONTEVIDEO     SUNNY     73  36  25 SE5       30.22S                  
REDWOOD FALLS  SUNNY     72  33  24 CALM      30.21S                  
TRACY          SUNNY     72  36  27 E3        30.22S                  
WINDOM         SUNNY     72  28  20 CALM      30.22S                  
WORTHINGTON    SUNNY     70  34  26 W5        30.22S                  
$$

IAZ001>003-012>014-020>022-031-032-NEZ013-014-SDZ071-221900-
NORTHWEST IOWA
  
CITY           SKY/WX    TMP DP  RH WIND       PRES   REMARKS
CHEROKEE       MOSUNNY   73  41  32 S5        30.21F                  
DENISON        CLOUDY    72  37  28 CALM      30.20F                  
ESTHERVILLE    SUNNY     71  34  25 VRB3      30.22R                  
LE MARS        PTSUNNY   72  36  26 SW3       30.21F                  
ORANGE CITY    MOSUNNY   72  37  28 SW3       30.21F                  
SHELDON        MOSUNNY   72  32  23 CALM      30.20F                  
SIOUX CITY     CLOUDY    73  39  29 VRB5      30.21F                  
6HR MIN TEMP:  49; 6HR MAX TEMP:  73;                                

SPENCER        MOSUNNY   73  37  27 S5        30.22S                  
6HR MIN TEMP:  45; 6HR MAX TEMP:  73;                                

STORM LAKE     MOSUNNY   72  30  21 CALM      30.23S                  
$$
 
ABBREVIATIONS USED IN REMARKS
   TC - TEMPERATURE IN CELSIUS
  WCI - WIND CHILL INDEX
   HX - HEAT INDEX
  VSB - VISIBILITY


Return to Home page


Western Regional Climate Center, wrcc@dri.edu